www.pogodaiklimat.ru
ПОГОДА в Мильхостове
Время
(UTC), дата
07 30.11
08 30.11
09 30.11
10 30.11
11 30.11
12 30.11
13 30.11
14 30.11
15 30.11
16 30.11
17 30.11
18 30.11
19 30.11
20 30.11
21 30.11
22 30.11
23 30.11
00 1.12
01 1.12
02 1.12
03 1.12
04 1.12
05 1.12
06 1.12
07 1.12
08 1.12
09 1.12
10 1.12
11 1.12
12 1.12
13 1.12
14 1.12
15 1.12
16 1.12
17 1.12
18 1.12
19 1.12
20 1.12
21 1.12
22 1.12
23 1.12
00 2.12
01 2.12
02 2.12
03 2.12
04 2.12
05 2.12
06 2.12
07 2.12
08 2.12
09 2.12
10 2.12
11 2.12
12 2.12
13 2.12
14 2.12
15 2.12
16 2.12
17 2.12
18 2.12
19 2.12
20 2.12
21 2.12
22 2.12
23 2.12
00 3.12
01 3.12
02 3.12
03 3.12
04 3.12
05 3.12
06 3.12
07 3.12
08 3.12
09 3.12
10 3.12
11 3.12
12 3.12
13 3.12
14 3.12
15 3.12
16 3.12
17 3.12
18 3.12
19 3.12
20 3.12
21 3.12
22 3.12
23 3.12
00 4.12
01 4.12
02 4.12
03 4.12
04 4.12
05 4.12
06 4.12
07 4.12
08 4.12
09 4.12
10 4.12
11 4.12
12 4.12
13 4.12
14 4.12
15 4.12
16 4.12
17 4.12
18 4.12
19 4.12
20 4.12
21 4.12
22 4.12
23 4.12
00 5.12
01 5.12
02 5.12
03 5.12
04 5.12
05 5.12
06 5.12
07 5.12
08 5.12
09 5.12
10 5.12
11 5.12
12 5.12
13 5.12
14 5.12
15 5.12
16 5.12
17 5.12
18 5.12
19 5.12
20 5.12
21 5.12
22 5.12
23 5.12
00 6.12
01 6.12
02 6.12
03 6.12
04 6.12
05 6.12
06 6.12
07 6.12
08 6.12
09 6.12
10 6.12
11 6.12
12 6.12
13 6.12
14 6.12
15 6.12
16 6.12
17 6.12
18 6.12
19 6.12
20 6.12
21 6.12
22 6.12
23 6.12
00 7.12
01 7.12
02 7.12
03 7.12
04 7.12
05 7.12
Ветер
(напр.,м/с)
Видим. Явления Облачность Т
(С)
Тd
(С)
f
(%)
Тe
(С)
Тes
(С)
Комфортность P
(гПа)
Po
(гПа)
Тmin
(С)
Tmax
(С)
R
(мм)
R24
(мм)
S
(см)
СЗ 5 40 км 5/5 1000 м
[Sc]
+3.8 -2.6 63 -1 -1 по сезону 1015.4 1002.2
СЗ 6 40 км 5/5 1000 м
[Sc Ac lent]
+3.8 -2.8 62 -1 -1 по сезону 1016.5 1003.3
С 6 50 км 5/5 1000 м
[Cu Sc]
+4.5 -2.6 60 -0 0 по сезону 1017.4 1004.3
С 6 50 км 6/6 1000 м
[Cu Sc]
+4.3 -3.2 58 -1 -0 по сезону 1017.9 1004.7
С 8 50 км 5/5 1000 м
[Cu Sc]
+4.7 -2.8 58 -1 -1 по сезону 1018.3 1005.2
С 8 50 км 4/4 1000 м
[Cu Sc]
+4.8 -3.2 56 -1 -0 по сезону 1018.8 1005.6
СЗ 8 50 км 4/4 1000 м
[Cu Sc]
+4.6 -6.0 46 -1 -1 по сезону 1019.6 1006.4
СЗ 5 50 км 4/4 1000 м
[Cu Sc]
+4.1 -5.6 49 -0 -0 по сезону 1020.5 1007.3
С 2 40 км 4/4 1000 м
[Cu Sc]
+2.3 -4.4 61 -0 -0 по сезону 1021.4 1008.1
С 2 н/о н/о +1.5 -3.4 70 -2 -2 по сезону 1022.2 1008.9
штиль 0 н/о н/о +1.1 -3.9 69 0 0 по сезону 1022.7 1009.3
нст 1 30 км 1/1 1000 м
[Sc]
+0.5 -4.1 71 -1 -1 по сезону 1023.2 1009.8 +5.1
30 км 1/1 1000 м
[Sc]
0.0 -4.4 72 1023.7 1010.3
З 2 30 км ясно -0.3 -4.7 72 -4 -4 прохладно 1024.2 1010.7
З 2 н/о н/о -1.7 -4.0 84 -6 -6 холодно 1024.4 1010.9
СЗ 2 н/о н/о +0.2 -4.4 71 -3 -3 прохладно 1025.0 1011.5
н/о н/о -2.9 -4.9 86 1025.5 1011.9
ЮЗ 2 н/о н/о -2.4 -4.6 85 -6 -6 холодно 1025.7 1012.1
н/о н/о -3.2 -5.2 86 1026.1 1012.5
ЮВ 2 н/о н/о -4.7 -6.2 89 -9 -9 очень
холодно
1026.3 1012.6
ЮЗ 2 н/о н/о -3.8 -5.0 91 -8 -8 очень
холодно
1026.5 1012.8
н/о н/о -3.2 -4.6 90 1026.6 1013.0
н/о н/о -4.8 -6.3 89 1027.0 1013.3
нст 1 40 км 1/1 1200 м
[Sc]
-5.1 -5.9 94 -8 -8 очень
холодно
1027.4 1013.6 -5.5
штиль 0 40 км 1/1 1200 м
[Sc]
-4.7 -6.2 89 -6 -6 холодно 1027.7 1014.0
35 км 1/1 1200 м
[Sc]
-0.8 -3.0 85 1027.8 1014.3
В 2 35 км 1/1 1200 м
[Sc]
+0.4 -2.1 83 -3 -2 прохладно 1028.0 1014.5
35 км 1/1 1080 м
[Cu Sc]
+2.3 -2.6 70 1027.6 1014.2
30 км 1/1 1080 м
[Cu Sc]
+3.5 -1.6 69 1026.9 1013.6
Ю 3 35 км 5/5 1080 м
[Cu Sc]
+4.1 -3.4 58 +1 +2 по сезону 1026.6 1013.3
Ю 5 35 км 6/3 1080 м
[Cu Sc Ci sp]
+4.3 -4.2 54 0 0 по сезону 1026.5 1013.2
Ю 4 35 км 6/1 1080 м
[Sc diur, vesp Ci sp]
+3.3 -4.4 57 -1 -1 по сезону 1026.8 1013.5
ЮВ 3 30 км 5/1 1080 м
[Sc diur, vesp Ci sp]
+1.1 -3.4 72 -3 -3 прохладно 1027.1 1013.7
ЮВ 2 н/о н/о -0.8 -3.8 80 -4 -4 прохладно 1027.1 1013.6
ЮВ 3 н/о н/о -1.8 -3.8 86 -7 -7 холодно 1027.0 1013.4
Ю 2 20 км ясно -1.8 -3.8 86 -6 -6 холодно 1026.6 1013.0 +4.7
20 км 1/0
[Ci fib]
-1.3 -3.5 85 1026.8 1013.3
В 1 20 км 3/0
[Ci sp]
-3.1 -4.5 90 -5 -5 холодно 1026.6 1013.0
Ю 1 н/о н/о -2.6 -3.9 91 -5 -5 холодно 1026.5 1012.9
ЮВ 1 н/о н/о -3.0 -4.4 90 -5 -5 холодно 1026.1 1012.5
штиль 0 н/о н/о -2.5 -3.9 90 -4 -4 прохладно 1025.6 1012.0
СВ 1 н/о н/о -2.8 -3.8 93 -5 -5 холодно 1024.9 1011.3
Ю 1 н/о н/о -1.6 -3.6 86 -4 -4 прохладно 1024.3 1010.8
н/о н/о -1.6 -3.6 86 1023.7 1010.2
штиль 0 н/о н/о -1.6 -3.5 87 -3 -3 прохладно 1023.1 1009.6
В 1 н/о н/о -1.6 -3.2 89 -4 -4 прохладно 1022.4 1008.9
ЮВ 1 н/о н/о -1.7 -2.8 92 -4 -4 прохладно 1022.1 1008.6
ЮВ 2 300 м слаб. снег 10/10 1000 м
[Sc]
-1.7 -2.5 94 -6 -6 холодно 1021.2 1007.7 -3.4 0.4 0.4 1
1200 м слаб. снег 10/10 90 м
[Sc]
-1.5 -2.2 95 1021.3 1007.8
1200 м слаб. снег 10/10 1000 м
[Sc]
-1.2 -2.0 94 1020.8 1007.3
нст 1 1200 м слаб. снег 10/10 90 м
[Sc]
-1.1 -1.9 94 -3 -3 прохладно 1020.4 1007.0
СЗ 1 1800 м слаб. снег 10/10 90 м
[Sc]
-0.8 -1.9 92 -3 -3 прохладно 1019.7 1006.3
СЗ 1 1800 м слаб. снег 10/10 90 м
[Sc]
-0.7 -1.7 93 -3 -3 прохладно 1019.0 1005.6
СЗ 1 1800 м слаб. снег 10/10 90 м
[Sc]
-0.5 -1.5 93 -3 -3 прохладно 1018.7 1005.3 7
СЗ 2 1800 м слаб. снег 10/10 90 м
[Sc]
-0.5 -1.3 94 -4 -4 прохладно 1018.6 1005.2
С 2 2500 м слаб. снег 10/10 180 м
[Sc]
-0.6 -1.3 95 -5 -5 холодно 1018.7 1005.3
С 1 4000 м в посл. час снег 10/10 300 м
[Sc]
-0.9 -1.4 96 -3 -3 прохладно 1018.8 1005.4
н/о н/о -3.4 -4.1 95 1019.4 1005.8
200 м туман 10/10 30 м
[St]
-4.6 -5.1 96 1019.8 1006.2
ЮВ 1 1500 м в посл. час туман 9/9 90 м
[St]
-6.9 -7.7 94 -9 -9 очень
холодно
1020.4 1006.7 -0.4 8 7
Ю 2 2000 м дымка 8/8 180 м
[St]
-7.0 -7.7 95 -12 -12 очень
холодно
1021.0 1007.2
1500 м дымка 6/6 90 м
[St]
-8.9 -9.7 94 1021.5 1007.6
н/о н/о -10.2 -11.4 91 1022.0 1008.0
н/о н/о -8.0 -8.6 95 1022.3 1008.5
н/о н/о -6.9 -7.8 93 1022.8 1009.0
нст 1 н/о н/о -7.4 -8.3 93 -10 -10 очень
холодно
1022.8 1009.0
н/о н/о -7.5 -8.3 94 1023.2 1009.4
н/о н/о -6.8 -7.7 93 1023.4 1009.6
В 2 н/о н/о -7.5 -8.6 92 -12 -12 очень
холодно
1023.4 1009.6
н/о н/о -6.2 -6.9 95 1023.9 1010.1
н/о н/о -5.3 -6.0 95 1024.2 1010.5
нст 1 1500 м дымка 10/10 90 м
[St]
-5.2 -6.0 94 -8 -8 очень
холодно
1024.8 1011.1 -11.1 7.5 7
800 м переохл. туман 10/10 30 м
[St]
-4.7 -5.4 95 1025.4 1011.7
4000 м в посл. час туман 10/10 300 м
[St]
-4.0 -4.8 94 1026.2 1012.5
нст 1 200 м слаб. снег {туман} [диам. изморози 5 мм] 10/10 90 м
[Cu Sc]
-3.4 -4.1 95 -6 -6 холодно 1026.6 1013.0
1200 м в посл. час ливневой снег {туман} 10/10 90 м
[Cu Sc]
-2.7 -3.5 94 1026.8 1013.2
ЮВ 1 5000 м дымка 10/10 300 м
[St]
-2.7 -3.7 93 -5 -5 холодно 1027.0 1013.4
нст 1 4000 м в посл. час ливневой снег {туман} 10/10 300 м
[Cu Sc]
-2.5 -3.5 93 -5 -5 холодно 1027.2 1013.6 0.0
7000 м дымка 10/10 1000 м
[Cu Sc]
-2.4 -3.4 93 1027.4 1013.8
5000 м дымка 10/10 1000 м
[Cu Sc]
-2.8 -3.8 93 1027.8 1014.2
нст 1 3000 м дымка 10/10 180 м
[Sc]
-3.3 -4.0 95 -6 -6 холодно 1028.3 1014.6
300 м переохл. туман ?/? -3.6 -4.1 96 1028.8 1015.1
З 1 200 м переохл. туман ?/? -3.5 -4.0 96 -6 -6 холодно 1029.5 1015.8
нст 1 300 м переохл. туман [диам. изморози 4 мм] ?/? -3.6 -4.1 96 -6 -6 холодно 1030.1 1016.4 -2.0 1 6
200 м переохл. туман ?/? -3.9 -4.4 96 1030.5 1016.8
200 м переохл. туман ?/? -4.3 -4.8 96 1031.0 1017.2
н/о н/о -4.8 -5.3 96 1031.5 1017.7
н/о н/о -5.2 -5.9 95 1031.6 1017.8
н/о н/о -5.2 -5.9 95 1031.5 1017.7
нст 1 н/о н/о -5.0 -5.5 96 -8 -8 очень
холодно
1031.7 1017.9
штиль 0 н/о н/о -5.0 -5.7 95 -6 -6 холодно 1031.9 1018.1
н/о н/о -4.9 -5.6 95 1031.9 1018.1
н/о н/о -4.9 -5.6 95 1031.6 1017.8
н/о н/о -4.4 -5.1 95 1032.1 1018.3
н/о н/о -4.1 -4.8 95 1032.1 1018.3
нст 1 7000 м дымка {туман} [диам. изморози 15 мм] 10/10 180 м
[St]
-3.8 -4.5 95 -6 -6 холодно 1032.1 1018.4 -5.3 0.1 6
ЮВ 1 8000 м дымка 10/10 180 м
[St]
-3.7 -4.5 94 -6 -6 холодно 1032.6 1018.9
8000 м дымка 10/10 180 м
[St]
-3.1 -3.9 94 1033.0 1019.3
Ю 2 8000 м дымка [диам. изморози 15 мм] 10/10 180 м
[St]
-2.6 -3.6 93 -7 -7 холодно 1033.2 1019.5
ЮВ 2 9000 м дымка 10/10 180 м
[St]
-2.0 -3.0 93 -6 -6 холодно 1033.3 1019.6
ЮВ 2 9000 м дымка 10/10 180 м
[St]
-1.2 -2.3 92 -5 -5 холодно 1032.9 1019.3
Ю 3 9000 м дымка [диам. изморози 15 мм] 10/10 180 м
[St]
-1.1 -2.5 90 -6 -6 холодно 1032.7 1019.1
ЮВ 3 12 км 10/10 300 м
[St]
-1.6 -3.2 89 -7 -7 холодно 1032.7 1019.1
ЮВ 3 12 км 9/9 300 м
[St]
-1.6 -3.5 87 -7 -7 холодно 1032.7 1019.1
Ю 2 12 км 10/10 300 м
[St]
-1.6 -3.2 89 -6 -6 холодно 1033.1 1019.5
Ю 2 н/о н/о -1.7 -3.3 89 -6 -6 холодно 1033.2 1019.6
Ю 2 н/о н/о -1.8 -3.2 90 -6 -6 холодно 1033.6 1019.9
Ю 2 8000 м дымка 10/10 180 м
[St]
-1.9 -3.2 91 -6 -6 холодно 1033.6 1019.9 -1.1 5
Ю 2 9000 м дымка 10/10 180 м
[St]
-1.9 -3.2 91 -6 -6 холодно 1033.7 1020.0
7000 м дымка 10/10 180 м
[St]
-1.8 -3.1 91 1033.8 1020.1
н/о н/о -1.8 -2.9 92 1033.7 1020.0
Ю 3 н/о н/о -2.2 -3.2 93 -7 -7 холодно 1033.9 1020.2
Ю 3 н/о н/о -2.7 -3.4 95 -8 -8 очень
холодно
1033.7 1020.0
Ю 3 н/о н/о -3.0 -3.8 94 -8 -8 очень
холодно
1033.6 1019.9
Ю 2 н/о н/о -2.9 -3.6 95 -7 -7 холодно 1033.7 1020.0
ЮВ 2 н/о н/о -3.1 -3.5 97 -7 -7 холодно 1033.2 1019.5
ЮВ 2 н/о н/о -3.1 -3.6 96 -7 -7 холодно 1033.1 1019.4
Ю 3 н/о н/о -3.2 -3.9 95 -9 -9 очень
холодно
1032.9 1019.2
Ю 2 н/о н/о -3.2 -4.0 94 -7 -7 холодно 1032.8 1019.1
Ю 2 7000 м дымка 10/10 180 м
[St]
-3.2 -4.0 94 -7 -7 холодно 1032.9 1019.2 -3.3 5
Ю 2 7000 м дымка 10/10 180 м
[St]
-3.3 -4.1 94 -8 -8 очень
холодно
1033.2 1019.5
ЮВ 2 6000 м дымка 10/10 180 м
[St]
-3.6 -4.7 92 -8 -8 очень
холодно
1033.6 1019.8
ЮВ 2 5000 м дымка 10/10 180 м
[St]
-3.7 -4.8 92 -8 -8 очень
холодно
1033.6 1019.8
ЮВ 2 5000 м дымка 10/10 180 м
[St]
-3.1 -4.1 93 -7 -7 холодно 1033.1 1019.4
Ю 2 5000 м дымка 10/10 180 м
[St]
-3.1 -4.1 93 -7 -7 холодно 1032.5 1018.8
Ю 3 5000 м дымка 10/10 180 м
[St]
-3.3 -4.3 93 -9 -9 очень
холодно
1031.9 1018.2
Ю 3 6000 м дымка 10/10 180 м
[St]
-3.2 -4.2 93 -9 -9 очень
холодно
1031.2 1017.5
Ю 3 5000 м дымка 10/10 180 м
[St]
-3.2 -4.0 94 -9 -9 очень
холодно
1031.1 1017.4
Ю 3 4000 м дымка 10/10 180 м
[St]
-3.2 -3.9 95 -9 -9 очень
холодно
1030.7 1017.0
Ю 3 н/о н/о -3.2 -3.7 96 -9 -9 очень
холодно
1030.4 1016.7
Ю 3 н/о н/о -3.3 -3.8 96 -9 -9 очень
холодно
1030.5 1016.8
Ю 2 4000 м дымка 10/10 180 м
[St]
-3.6 -4.1 96 -8 -8 очень
холодно
1030.6 1016.9 -3.1 4
Ю 2 3000 м дымка 10/10 150 м
[St]
-3.8 -4.3 96 -8 -8 очень
холодно
1030.2 1016.5
Ю 3 3000 м дымка 10/10 150 м
[St]
-3.9 -4.4 96 -9 -9 очень
холодно
1030.2 1016.5
Ю 2 н/о н/о -4.0 -4.5 96 -8 -8 очень
холодно
1029.8 1016.1
Ю 2 н/о н/о -3.9 -4.6 95 -8 -8 очень
холодно
1029.8 1016.1
Ю 2 н/о н/о -4.0 -4.7 95 -8 -8 очень
холодно
1029.4 1015.7
ЮВ 3 н/о н/о -4.2 -4.9 95 -10 -10 очень
холодно
1028.9 1015.2
н/о н/о -4.3 -5.0 95 1028.9 1015.2
ЮВ 2 н/о н/о -4.0 -4.7 95 -8 -8 очень
холодно
1028.4 1014.7
Ю 3 н/о н/о -3.9 -4.6 95 -9 -9 очень
холодно
1028.1 1014.4
ЮВ 3 н/о н/о -3.9 -4.4 96 -9 -9 очень
холодно
1027.7 1014.0
ЮВ 4 н/о н/о -4.0 -4.5 96 -10 -10 очень
холодно
1027.8 1014.1
ЮВ 3 1200 м дымка 10/10 90 м
[St]
-4.2 -4.7 96 -10 -10 очень
холодно
1027.9 1014.2 -4.3 4
ЮВ 3 1200 м дымка 10/10 90 м
[St]
-3.9 -4.6 95 -9 -9 очень
холодно
1028.2 1014.5
ЮВ 3 2000 м дымка 10/10 150 м
[St]
-3.7 -4.5 94 -9 -9 очень
холодно
1028.2 1014.5
ЮВ 3 2000 м в посл. час крупа 10/10 150 м
[St]
-3.4 -4.2 94 -9 -9 очень
холодно
1028.1 1014.4
ЮВ 3 2500 м дымка 10/10 180 м
[St]
-3.1 -3.9 94 -8 -8 очень
холодно
1027.1 1013.5
Ю 3 2500 м дымка 10/10 180 м
[St]
-2.6 -3.6 93 -8 -8 очень
холодно
1026.6 1013.0
ЮВ 3 3000 м дымка {ливн. осадки} 10/10 180 м
[St]
-2.4 -3.2 94 -8 -8 очень
холодно
1025.8 1012.2 0.0
Ю 3 4000 м дымка 10/10 300 м
[St]
-2.2 -3.2 93 -7 -7 холодно 1025.1 1011.5
Ю 3 4000 м дымка 10/10 300 м
[St]
-2.1 -3.1 93 -7 -7 холодно 1024.9 1011.3
Ю 3 3000 м дымка 10/10 180 м
[St]
-2.1 -2.8 95 -7 -7 холодно 1024.4 1010.9
ЮВ 3 н/о н/о -2.2 -2.9 95 -7 -7 холодно 1024.6 1011.0
ЮВ 3 н/о н/о -2.2 -2.9 95 -7 -7 холодно 1024.7 1011.1
ЮВ 3 4000 м дымка 10/10 300 м
[St]
-2.1 -2.9 94 -7 -7 холодно 1024.4 1010.9 -2.1 0.0 3
ЮВ 4 6000 м дымка 10/10 480 м
[St]
-2.1 -3.1 93 -8 -8 очень
холодно
1024.0 1010.5
ЮВ 3 8000 м дымка 10/10 480 м
[Sc]
-2.1 -3.2 92 -7 -7 холодно 1023.6 1010.1
ЮВ 3 н/о н/о -2.1 -3.2 92 -7 -7 холодно 1023.5 1010.0
ЮВ 3 н/о н/о -2.0 -3.1 92 -7 -7 холодно 1023.1 1009.6
ЮВ 3 н/о н/о -2.1 -2.9 94 -7 -7 холодно 1022.6 1009.1
ЮВ 4 н/о н/о -2.0 -2.7 95 -8 -8 очень
холодно
1022.0 1008.5
ЮВ 3 н/о н/о -2.0 -2.6 96 -7 -7 холодно 1021.6 1008.1
ЮВ 3 н/о н/о -1.8 -2.4 96 -7 -7 холодно 1020.9 1007.4
ЮВ 2 н/о н/о -1.7 -2.2 96 -6 -6 холодно 1020.5 1007.0
ЮВ 3 н/о н/о -1.6 -2.2 96 -7 -7 холодно 1020.0 1006.5
ЮВ 2 н/о н/о -1.6 -2.2 96 -6 -6 холодно 1019.8 1006.3
Местоположение метеостанции Мильхостов (Словакия): широта 48.67 долгота 21.73 высота над уровнем моря 106 м.
В архиве по умолчанию представлена погода в Мильхостове за последнюю неделю. Архивные данные за месяц целиком и за предыдущие месяцы, начиная с января 2011 года, Вы можете получить, выбрав интересующий диапазон дат из раскрывающегося списка и нажав кнопку "Найти!".
*Определитесь, кто Вы:
Внимание! Время в таблицах - всемирное. Для получения местного времени необходимо прибавить поправку, которая равна 1 ч.
Смотрите также архив погоды в соседних городах и на ближайших метеорологических станциях:
Партнеры нашего сайта:      
Пояснения к столбцам:
  • Ветер - указаны скорость ветра в м/с - средняя за 10 мин, порывы в срок и между сроками (в фигурных скобках) и направление, откуда дует ветер: С - северный,
  • СВ - северо-восточный, В - восточный, ЮВ - юго-восточный, Ю - южный, ЮЗ - юго-западный, З - западный, СЗ - северо-западный.
  • Видимость - горизонтальная дальность видимости в метрах или километрах. При видимости от 1 до 10 км при отсутствии осадков обычно наблюдается дымка, при ухудшении видимости до 1 км и менее - туман. В сухую погоду видимость может ухудшаться дымом, пылью или мглою.
  • Явления - указаны атмосферные явления, наблюдавшиеся в срок или в последний час перед сроком; фигурными скобками обозначены явления, наблюдавшиеся между сроками (за 1-3 часа до срока); квадратными скобками обозначены град или гололедные отложения с указанием их диаметра в мм.
  • Облачность - указаны через наклонную черту общая и нижняя облачность в баллах и высота нижней границы облаков в метрах; квадратными скобками обозначены формы облаков: Ci - перистые, Cs - перисто-слоистые, Cc - перисто-кучевые, Ac - высококучевые, As - высокослоистые, Sc - слоисто-кучевые, Ns - слоисто-дождевые, Cu - кучевые, Cb - кучево-дождевые. Подробнее классификацию облаков см. в Атласе облаков (PDF).
  • T - Температура воздуха - температура, измеренная на высоте 2 м над землей.
  • Td - Температура точки росы - температура, при понижении до которой содержащийся в воздухе водяной пар достигнет насыщения.
  • f - Относительная влажность воздуха - влажноcть воздуха, измеренная на высоте 2 м над землей.
  • Te - Эффективная температура - температура, которую ощущает одетый по сезону человек в тени. Характеристика душности погоды. При расчете учитывается влияние влажности воздуха и скорости ветра на теплоощущения человека.
  • Tes - Эффективная температура на солнце - температура, которую ощущает человек, с поправкой на солнечный нагрев. Характеристика знойности погоды. Зависит от высоты солнца над горизонтом, облачности и скорости ветра. Ночью, в пасмурную погоду, а также при ветре 12 м/с и более поправка равна нулю.
  • P - Атмосферное давление - приведенное к уровню моря атмосферное давление.
  • Po - Атмосферное давление - измеренное на уровне метеостанции атмосферное давление.
  • Tmin - Минимальная температура - минимум температуры воздуха на высоте 2 м над землей.
  • Tmax - Максимальная температура - максимум температуры воздуха на высоте 2 м над землей.
  • R - Количество осадков - Количество выпавших осадков за период времени, мм. При наведении курсора мыши на число - период времени, за который выпало указанное количество осадков.
  • R24 - Количество осадков - Количество выпавших осадков за 24 часа, мм.
  • S - Снежный покров - Высота снежного покрова, см. При наведении курсора мыши на число - состояние снежного покрова и степень покрытия местности в баллах.